FW2134 Weather Reports


time (UTC)temp
C
wind
direction
speed
KPH
gust
KPH
rain 1hr
cm
rain 24hr
cm
rain mn
cm
humidity
%
barometer
mb
20260504211537 23 199 11.3 0.0 0.00 0.00 0.00 27 1008.3
20260504210036 22 76 11.3 0.0 0.00 0.00 0.00 28 1008.3
20260504204535 22 141 9.7 0.0 0.00 0.00 0.00 28 1008.4
20260504203035 23 95 11.3 0.0 0.00 0.00 0.00 28 1008.3
20260504201534 23 137 12.9 0.0 0.00 0.00 0.00 27 1008.5
20260504200041 23 123 11.3 0.0 0.00 0.00 0.00 30 1008.6
20260504194538 23 152 9.7 0.0 0.00 0.00 0.00 28 1008.7
20260504193032 23 154 11.3 0.0 0.00 0.00 0.00 28 1008.8
20260504191548 23 124 11.3 0.0 0.00 0.00 0.00 27 1009.0
20260504190032 23 127 12.9 0.0 0.00 0.00 0.00 28 1009.3
20260504184535 23 128 12.9 0.0 0.00 0.00 0.00 30 1009.5
20260504183039 23 116 9.7 0.0 0.00 0.00 0.00 27 1009.6
20260504181528 22 140 9.7 0.0 0.00 0.00 0.00 27 1009.8
20260504180026 22 165 9.7 0.0 0.00 0.00 0.00 33 1010.2
20260504174525 22 89 12.9 0.0 0.00 0.00 0.00 30 1010.3
20260504173027 22 198 14.5 0.0 0.00 0.00 0.00 30 1010.4
20260504171523 21 185 9.7 0.0 0.00 0.00 0.00 32 1010.5
20260504081506 8 114 1.6 0.0 0.00 0.00 0.00 55 1012.9
20260504044548 10 124 1.6 0.0 0.00 0.00 0.00 48 1012.2
20260504043042 10 113 3.2 0.0 0.00 0.00 0.00 48 1012.1
20260504041540 10 116 3.2 0.0 0.00 0.00 0.00 48 1012.0
20260504040049 10 133 3.2 0.0 0.00 0.00 0.00 47 1011.9
20260504034554 10 131 1.6 0.0 0.00 0.00 0.00 46 1012.0
20260504033046 11 134 3.2 0.0 0.00 0.00 0.00 46 1011.8
20260504031537 11 148 0.0 0.0 0.00 0.00 0.00 45 1011.8
20260504030044 11 151 1.6 0.0 0.00 0.00 0.00 42 1011.7
20260504024537 11 155 3.2 0.0 0.00 0.00 0.00 40 1011.7
20260504023047 11 130 3.2 0.0 0.00 0.00 0.00 39 1011.7
20260504021535 11 131 3.2 0.0 0.00 0.00 0.00 38 1011.8
20260504020038 12 120 3.2 0.0 0.00 0.00 0.00 38 1011.7
20260504014545 12 120 1.6 0.0 0.00 0.00 0.00 37 1011.5
20260504013043 12 158 1.6 0.0 0.00 0.00 0.00 36 1011.4
20260504011535 12 134 1.6 0.0 0.00 0.00 0.00 35 1011.2
20260504010041 12 128 1.6 0.0 0.00 0.00 0.00 34 1011.0
20260504004537 12 158 1.6 0.0 0.00 0.00 0.00 33 1010.8
20260504003037 13 133 1.6 0.0 0.00 0.00 0.00 32 1010.5
20260504001534 13 140 1.6 0.0 0.00 0.00 0.00 30 1010.3
20260504000033 13 159 3.2 0.0 0.00 0.00 0.00 29 1010.2
20260503234540 14 183 6.4 0.0 0.00 0.00 0.00 28 1010.0
20260503233031 14 157 9.7 0.0 0.00 0.00 0.00 28 1009.9
20260503231534 15 195 11.3 0.0 0.00 0.00 0.00 27 1009.8
20260503230038 15 158 8.0 0.0 0.00 0.00 0.00 27 1009.8
20260503224532 15 179 9.7 0.0 0.00 0.00 0.00 26 1009.7
20260503223031 15 171 11.3 0.0 0.00 0.00 0.00 25 1009.4
20260503221539 15 203 14.5 0.0 0.00 0.00 0.00 25 1009.6
20260503220030 15 206 9.7 0.0 0.00 0.00 0.00 26 1009.6
20260503214529 15 216 16.1 0.0 0.00 0.00 0.00 25 1009.4
20260503213029 15 222 12.9 0.0 0.00 0.00 0.00 25 1009.4